Other Public Products
Issued by NWS Charleston, SC

Home | Current Version | Previous Version | Text Only | Print | Product List | Glossary On
Versions: 1 2 3 4 5 6 7 8 9 10 11 12 13 14 15 16 17 18 19 20 21 22 23 24 25 26 27 28 29 30 31 32 33 34 35 36 37 38 39 40 41 42 43 44 45 46 47 48 49 50
000
FPUS82 KCHS 231427
OPUCHS

TEST...KCHS/KSAV Gateway Observations...TEST
National Weather Service Charleston SC
1000 AM EDT WED MAY 23 2018

NOTE: "fair" indicates few or no clouds below 12,000 feet with no
significant weather and/or obstructions to visibility.

SCZ050-WAZ558-NCZ071-TXZ119-213-PAZ071-DCZ001-FLZ074-172-MI076-
NYZ176-178-MAZ016-IL014-TNZ027-NJZ106-GAZ044-MD014-231500-

...Gateway Observations for Charleston International...

CITY           SKY/WX    TMP DP  RH WIND       PRES   REMARKS
Chas Airport   PTSUNNY   80  70  71 W9        30.13R
Seattle        MOSUNNY   61  48  62 CALM      29.83R
Charlotte      FAIR      78  69  73 SW7       30.10S
Dallas DFW     MOSUNNY   78  70  76 SW8       30.05R
Dallas Love    MOSUNNY   79  70  74 SW7       30.06R
Philladelphia  PTSUNNY   73  64  73 NW16      29.95F
Wash National  PTSUNNY   79  66  64 N9        29.99S
Baltimore      FAIR      77  64  64 NW9       29.97S
Miami          PTSUNNY   83  73  72 E13       30.09R
Detroit        FAIR      68  56  65 NW6       30.18R
Newark         PTSUNNY   72  64  76 NW10      29.92S
Laguardia      CLOUDY    68  60  75 NW7       29.92S
J F K          PTSUNNY   65  63  93 VRB5      29.94S FOG
Boston Logan   FAIR      69  56  62 NW12      29.86S
Ft. Lauderdale FAIR      82  74  76 E15       30.08S
Chicago O`Hare FAIR      65  57  75 CALM      30.20R HAZE
Chicago Midway FAIR      67  58  72 CALM      30.20S
Houston Bush   FAIR      81  76  84 NE6       30.04R
Houston Hobby  FAIR      80  75  84 SE3       30.03R
Nashville      FAIR      77  69  76 CALM      30.12R
Atlanta        CLOUDY    73  68  84 N8        30.11S

$$

GAZ044-118-TXZ119-213-NCZ071-DCZ001-MDZ014-506-PAZ021-071-NJZ106-
NYZ176-178-MAZ106-OHZ011-021-055-MIZ076-KYZ091-ILZ014-INZ047-
MNZ060-ONZ431-231500-

...Gateway Observations for Savannah International...

CITY           SKY/WX    TMP DP  RH WIND       PRES   REMARKS
Savannah Arpt  FAIR      81  70  69 SW12      30.13S
Atlanta        CLOUDY    73  68  84 N8        30.11S
Charlotte      FAIR      78  69  73 SW7       30.10S
Dallas DFW     MOSUNNY   78  70  76 SW8       30.05R
Houston Bush   FAIR      81  76  84 NE6       30.04R
Wash National  PTSUNNY   79  66  64 N9        29.99S
Wash Dulles    FAIR      77  64  64 NW10      30.00R
Baltimore      FAIR      77  64  64 NW9       29.97S
Philadelphia   PTSUNNY   73  64  73 NW16      29.95F
Newark         PTSUNNY   72  64  76 NW10      29.92S
Laguardia      CLOUDY    68  60  75 NW7       29.92S
J F K          PTSUNNY   65  63  93 VRB5      29.94S FOG
Boston         FAIR      69  56  62 NW12      29.86S
Pittsburg      CLOUDY    58  53  84 N12       30.13R
Akron          PTSUNNY   62  53  72 NW7       30.17R
Cleveland      CLOUDY    56  52  86 N8        30.20R
Cincinnati     FAIR      70  60  70 NE7       30.15R
Columbus       FAIR      65  57  74 MISG      30.15S
Detroit        FAIR      68  56  65 NW6       30.18R
Chicago O`Hare FAIR      65  57  75 CALM      30.20R HAZE
Minneapolis    PTSUNNY   67  61  81 SE10      30.09F
Indianapolis   FAIR      68  58  70 E7        30.17R
Toronto Canada SUNNY     68  50  52 NW10      30.05S

$$




USA.gov is the U.S. government's official web portal to all federal, state and local government web resources and services.